This demonstration page uses our WeatherBlox Daily Observations layout. Learn more.

Left ArrowRight Arrow

Hourly Observations for April 19, 2018

Temp ( °F °C ) Dew Point ( °F °C ) Humidity (%) Winds ( mph kmh ) Pressure ( in mb ) Visibility ( mi km ) Precip ( " mm )
12:53 am 00:53 Clear 31 -0.6 29 -1.7 92 92 WNW 9 15 30.35 1028 10 16 0.00 0.00
1:53 am 01:53 Clear 30 -1.1 27 -2.8 88 88 NW 8 13 30.36 1028 10 16 0.00 0.00
2:53 am 02:53 Clear 31 -0.6 29 -1.7 92 92 NNW 9 15 30.36 1028 10 16 0.00 0.00
3:53 am 03:53 Clear 30 -1.1 28 -2.2 92 92 NNW 8 13 30.37 1029 10 16 0.00 0.00
4:53 am 04:53 Clear 28 -2.2 26 -3.3 92 92 NNW 6 9 30.40 1029 10 16 0.00 0.00
5:53 am 05:53 Clear 26 -3.3 25 -3.9 96 96 NW 3 6 30.43 1030 10 16 0.00 0.00
6:53 am 06:53 Sunny 26 -3.3 25 -3.9 96 96 W 6 9 30.46 1032 10 16 0.00 0.00
7:53 am 07:53 Sunny 30 -1.1 28 -2.2 92 92 WNW 8 13 30.49 1032 10 16 0.00 0.00
8:53 am 08:53 Sunny 37 2.8 33 0.6 86 86 NNW 8 13 30.50 1033 10 16 0.00 0.00
9:53 am 09:53 Sunny 42 5.6 31 -0.6 65 65 NNW 6 9 30.51 1033 10 16 0.00 0.00
10:53 am 10:53 Sunny 44 6.7 29 -1.7 55 55 NE 3 6 30.51 1033 10 16 0.00 0.00
11:53 am 11:53 Sunny 47 8.3 28 -2.2 48 48 NE 7 11 30.51 1033 10 16 0.00 0.00
12:53 pm 12:53 Sunny 49 9.4 28 -2.2 44 44 VRB 3 6 30.50 1033 10 16 0.00 0.00
1:53 pm 13:53 Sunny 51 10.6 30 -1.1 44 44 SSE 5 7 30.47 1032 10 16 0.00 0.00
2:53 pm 14:53 Sunny 53 11.7 28 -2.2 38 38 VRB 5 7 30.44 1031 10 16 0.00 0.00
3:53 pm 15:53 Sunny 55 12.8 29 -1.7 37 37 E 8 13 30.40 1029 10 16 0.00 0.00
4:53 pm 16:53 Sunny 56 13.3 27 -2.8 33 33 ESE 12 19 30.38 1029 10 16 0.00 0.00
5:53 pm 17:53 Sunny 56 13.3 25 -3.9 30 30 ESE 10 17 30.36 1028 10 16 0.00 0.00
6:53 pm 18:53 Sunny 54 12.2 25 -3.9 33 33 ESE 10 17 30.36 1028 10 16 0.00 0.00
7:53 pm 19:53 Sunny 52 11.1 26 -3.3 37 37 ESE 8 13 30.35 1028 10 16 0.00 0.00
8:53 pm 20:53 Clear 48 8.9 27 -2.8 44 44 SE 7 11 30.35 1028 10 16 0.00 0.00
9:53 pm 21:53 Clear 47 8.3 27 -2.8 46 46 SE 9 15 30.36 1028 10 16 0.00 0.00
10:53 pm 22:53 Clear 45 7.2 27 -2.8 49 49 SE 7 11 30.37 1029 10 16 0.00 0.00
11:53 pm 23:53 Clear 43 6.1 26 -3.3 51 51 SSE 6 9 30.37 1029 10 16 0.00 0.00

Powered by AerisWeather